Time,TemperatureF,DewpointF,PressureIn,WindDirection,WindDirectionDegrees,WindSpeedMPH,WindSpeedGustMPH,Humidity,HourlyPrecipIn,Conditions,Clouds,dailyrainin,SoftwareType,DateUTC
2013-03-11 00:02:00,38.0,34.0,30.28,ESE,117,0.0,-999.0,86,-99.99,,,-99.99,,2013-03-11 04:02:00,
2013-03-11 00:12:00,38.0,34.0,30.28,ESE,117,0.0,-999.0,86,-99.99,,,-99.99,,2013-03-11 04:12:00,
2013-03-11 00:22:00,38.0,34.0,30.29,ESE,117,0.0,-999.0,87,-99.99,,,-99.99,,2013-03-11 04:22:00,
2013-03-11 00:32:00,38.0,34.0,30.28,East,92,0.0,-999.0,87,-99.99,,,-99.99,,2013-03-11 04:32:00,
2013-03-11 00:43:00,38.0,34.0,30.28,East,92,0.0,-999.0,87,-99.99,,,-99.99,,2013-03-11 04:43:00,
2013-03-11 00:53:00,38.0,34.0,30.28,East,91,0.0,-999.0,87,-99.99,,,-99.99,,2013-03-11 04:53:00,
2013-03-11 01:03:00,38.0,34.0,30.28,East,91,0.0,-999.0,87,-99.99,,,-99.99,,2013-03-11 05:03:00,
2013-03-11 01:12:00,38.0,34.0,30.28,East,91,0.0,-999.0,87,-99.99,,,-99.99,,2013-03-11 05:12:00,
2013-03-11 01:22:00,38.0,35.0,30.26,East,91,0.0,-999.0,88,-99.99,,,-99.99,,2013-03-11 05:22:00,
2013-03-11 01:32:00,39.0,36.0,30.26,ENE,60,0.0,-999.0,88,-99.99,,,-99.99,,2013-03-11 05:32:00,
2013-03-11 01:43:00,39.0,36.0,30.26,ENE,60,0.0,-999.0,88,-99.99,,,-99.99,,2013-03-11 05:43:00,
2013-03-11 01:52:00,39.0,36.0,30.27,ENE,57,0.0,-999.0,88,-99.99,,,-99.99,,2013-03-11 05:52:00,
2013-03-11 02:02:00,39.0,35.0,30.27,ENE,57,0.0,-999.0,87,-99.99,,,-99.99,,2013-03-11 06:02:00,
2013-03-11 02:12:00,39.0,35.0,30.27,ENE,57,0.0,-999.0,87,-99.99,,,-99.99,,2013-03-11 06:12:00,
2013-03-11 02:22:00,39.0,35.0,30.27,ENE,57,0.0,-999.0,87,-99.99,,,-99.99,,2013-03-11 06:22:00,
2013-03-11 02:32:00,40.0,36.0,30.27,ENE,57,0.0,-999.0,87,-99.99,,,-99.99,,2013-03-11 06:32:00,
2013-03-11 02:42:00,40.0,36.0,30.27,ENE,57,0.0,-999.0,87,-99.99,,,-99.99,,2013-03-11 06:42:00,
2013-03-11 02:53:00,40.0,36.0,30.26,ENE,57,0.0,-999.0,87,-99.99,,,-99.99,,2013-03-11 06:53:00,
2013-03-11 03:03:00,40.0,36.0,30.26,NE,49,0.0,-999.0,87,-99.99,,,-99.99,,2013-03-11 07:03:00,
2013-03-11 03:12:00,40.0,36.0,30.26,NE,49,0.0,-999.0,87,-99.99,,,-99.99,,2013-03-11 07:12:00,
2013-03-11 03:22:00,40.0,37.0,30.25,NE,49,0.0,-999.0,88,-99.99,,,-99.99,,2013-03-11 07:22:00,
2013-03-11 03:32:00,40.0,37.0,30.24,NE,49,0.0,-999.0,88,-99.99,,,-99.99,,2013-03-11 07:32:00,
2013-03-11 03:42:00,40.0,37.0,30.24,NE,49,0.0,-999.0,88,-99.99,,,-99.99,,2013-03-11 07:42:00,
2013-03-11 03:52:00,40.0,37.0,30.24,WSW,254,0.0,-999.0,89,-99.99,,,-99.99,,2013-03-11 07:52:00,
2013-03-11 04:02:00,40.0,37.0,30.24,WSW,254,0.0,-999.0,89,-99.99,,,-99.99,,2013-03-11 08:02:00,
2013-03-11 04:12:00,40.0,37.0,30.24,WSW,254,0.0,-999.0,89,-99.99,,,-99.99,,2013-03-11 08:12:00,
2013-03-11 04:22:00,40.0,37.0,30.22,WSW,254,0.0,-999.0,89,-99.99,,,-99.99,,2013-03-11 08:22:00,
2013-03-11 04:32:00,40.0,37.0,30.23,WSW,256,0.0,-999.0,89,-99.99,,,-99.99,,2013-03-11 08:32:00,
2013-03-11 04:42:00,40.0,37.0,30.23,WSW,256,0.0,-999.0,89,-99.99,,,-99.99,,2013-03-11 08:42:00,
2013-03-11 04:52:00,40.0,37.0,30.22,WSW,249,0.0,-999.0,89,-99.99,,,-99.99,,2013-03-11 08:52:00,
2013-03-11 05:02:00,40.0,37.0,30.22,South,180,0.0,-999.0,89,-99.99,,,-99.99,,2013-03-11 09:02:00,
2013-03-11 05:12:00,40.0,37.0,30.22,South,180,0.0,-999.0,89,-99.99,,,-99.99,,2013-03-11 09:12:00,
2013-03-11 05:23:00,40.0,37.0,30.22,WNW,293,0.0,-999.0,90,-99.99,,,-99.99,,2013-03-11 09:23:00,
2013-03-11 05:32:00,40.0,37.0,30.22,WNW,293,0.0,-999.0,89,-99.99,,,-99.99,,2013-03-11 09:32:00,
2013-03-11 05:42:00,40.0,37.0,30.22,WNW,293,0.0,-999.0,89,-99.99,,,-99.99,,2013-03-11 09:42:00,
2013-03-11 05:52:00,40.0,37.0,30.22,WNW,293,0.0,-999.0,90,-99.99,,,-99.99,,2013-03-11 09:52:00,
2013-03-11 06:02:00,40.0,38.0,30.22,WNW,293,0.0,-999.0,91,-99.99,,,-99.99,,2013-03-11 10:02:00,
2013-03-11 06:12:00,40.0,38.0,30.22,WNW,293,0.0,-999.0,91,-99.99,,,-99.99,,2013-03-11 10:12:00,
2013-03-11 06:22:00,40.0,38.0,30.22,WNW,293,0.0,-999.0,91,-99.99,,,-99.99,,2013-03-11 10:22:00,
2013-03-11 06:32:00,40.0,38.0,30.22,WNW,293,0.0,-999.0,92,-99.99,,,-99.99,,2013-03-11 10:32:00,
2013-03-11 06:42:00,40.0,38.0,30.22,WNW,293,0.0,-999.0,92,-99.99,,,-99.99,,2013-03-11 10:42:00,
2013-03-11 06:52:00,40.0,38.0,30.21,WNW,293,0.0,-999.0,92,-99.99,,,-99.99,,2013-03-11 10:52:00,
2013-03-11 07:02:00,40.0,38.0,30.22,West,275,0.0,-999.0,93,-99.99,,,-99.99,,2013-03-11 11:02:00,
2013-03-11 07:12:00,40.0,38.0,30.22,West,275,0.0,-999.0,93,-99.99,,,-99.99,,2013-03-11 11:12:00,
2013-03-11 07:22:00,40.0,38.0,30.20,West,275,0.0,-999.0,94,-99.99,,,-99.99,,2013-03-11 11:22:00,
2013-03-11 07:33:00,40.0,38.0,30.20,West,275,0.0,-999.0,94,-99.99,,,-99.99,,2013-03-11 11:33:00,
2013-03-11 07:42:00,40.0,38.0,30.20,West,275,0.0,-999.0,94,-99.99,,,-99.99,,2013-03-11 11:42:00,
2013-03-11 07:53:00,40.0,38.0,30.20,West,275,0.0,-999.0,94,-99.99,,,-99.99,,2013-03-11 11:53:00,
2013-03-11 08:02:00,40.0,38.0,30.20,WNW,288,0.0,-999.0,94,-99.99,,,-99.99,,2013-03-11 12:02:00,
2013-03-11 08:12:00,40.0,38.0,30.20,WNW,288,0.0,-999.0,94,-99.99,,,-99.99,,2013-03-11 12:12:00,
2013-03-11 08:22:00,40.0,39.0,30.21,WNW,288,0.0,-999.0,95,-99.99,,,-99.99,,2013-03-11 12:22:00,
2013-03-11 08:32:00,41.0,39.0,30.22,WNW,288,0.0,-999.0,94,-99.99,,,-99.99,,2013-03-11 12:32:00,
2013-03-11 08:43:00,41.0,39.0,30.22,WNW,288,0.0,-999.0,94,-99.99,,,-99.99,,2013-03-11 12:43:00,
2013-03-11 08:53:00,41.0,40.0,30.22,WNW,288,0.0,-999.0,95,-99.99,,,-99.99,,2013-03-11 12:53:00,
2013-03-11 09:02:00,41.0,39.0,30.22,WNW,288,0.0,-999.0,94,-99.99,,,-99.99,,2013-03-11 13:02:00,
2013-03-11 09:12:00,41.0,39.0,30.22,WNW,288,0.0,-999.0,94,-99.99,,,-99.99,,2013-03-11 13:12:00,
2013-03-11 09:22:00,42.0,41.0,30.22,WNW,288,0.0,-999.0,95,-99.99,,,-99.99,,2013-03-11 13:22:00,
2013-03-11 09:32:00,42.0,41.0,30.21,ENE,69,0.0,-999.0,95,-99.99,,,-99.99,,2013-03-11 13:32:00,
2013-03-11 09:42:00,42.0,41.0,30.21,ENE,69,0.0,-999.0,95,-99.99,,,-99.99,,2013-03-11 13:42:00,
2013-03-11 09:53:00,42.0,41.0,30.21,ENE,59,0.0,-999.0,95,-99.99,,,-99.99,,2013-03-11 13:53:00,
2013-03-11 10:02:00,42.0,41.0,30.21,ENE,59,0.0,-999.0,95,-99.99,,,-99.99,,2013-03-11 14:02:00,
2013-03-11 10:12:00,42.0,41.0,30.21,ENE,59,0.0,-999.0,95,-99.99,,,-99.99,,2013-03-11 14:12:00,
2013-03-11 10:22:00,43.0,42.0,30.21,North,355,0.0,-999.0,95,-99.99,,,-99.99,,2013-03-11 14:22:00,
2013-03-11 10:33:00,43.0,42.0,30.21,North,355,0.0,-999.0,95,-99.99,,,-99.99,,2013-03-11 14:33:00,
2013-03-11 10:42:00,43.0,42.0,30.21,North,355,0.0,-999.0,95,-99.99,,,-99.99,,2013-03-11 14:42:00,
2013-03-11 10:53:00,43.0,42.0,30.21,SW,216,0.0,-999.0,95,-99.99,,,-99.99,,2013-03-11 14:53:00,
2013-03-11 11:02:00,43.0,42.0,30.21,East,90,0.0,-999.0,95,-99.99,,,-99.99,,2013-03-11 15:02:00,
2013-03-11 11:13:00,43.0,42.0,30.21,East,90,0.0,-999.0,95,-99.99,,,-99.99,,2013-03-11 15:13:00,
2013-03-11 11:22:00,44.0,43.0,30.21,NE,55,0.0,-999.0,95,-99.99,,,-99.99,,2013-03-11 15:22:00,
2013-03-11 11:32:00,45.0,43.0,30.20,West,269,0.0,-999.0,94,-99.99,,,-99.99,,2013-03-11 15:32:00,
2013-03-11 11:42:00,45.0,43.0,30.20,West,269,0.0,-999.0,94,-99.99,,,-99.99,,2013-03-11 15:42:00,
2013-03-11 11:53:00,46.0,44.0,30.19,WSW,240,0.0,-999.0,92,-99.99,,,-99.99,,2013-03-11 15:53:00,
2013-03-11 12:02:00,47.0,45.0,30.20,NE,46,0.0,-999.0,91,-99.99,,,-99.99,,2013-03-11 16:02:00,
2013-03-11 12:13:00,47.0,45.0,30.20,NE,46,0.0,-999.0,91,-99.99,,,-99.99,,2013-03-11 16:13:00,
2013-03-11 12:22:00,48.0,45.0,30.19,NW,317,0.0,-999.0,88,-99.99,,,-99.99,,2013-03-11 16:22:00,
2013-03-11 12:32:00,49.0,45.0,30.18,SW,225,0.0,-999.0,85,-99.99,,,-99.99,,2013-03-11 16:32:00,
2013-03-11 12:43:00,49.0,45.0,30.18,SW,225,0.0,-999.0,85,-99.99,,,-99.99,,2013-03-11 16:43:00,
2013-03-11 12:52:00,49.0,44.0,30.18,SSE,147,0.0,-999.0,82,-99.99,,,-99.99,,2013-03-11 16:52:00,
2013-03-11 13:02:00,50.0,44.0,30.18,East,89,0.0,-999.0,80,-99.99,,,-99.99,,2013-03-11 17:02:00,
2013-03-11 13:16:00,50.0,44.0,30.18,East,89,0.0,-999.0,80,-99.99,,,-99.99,,2013-03-11 17:16:00,
2013-03-11 13:27:00,51.0,44.0,30.18,East,82,1.0,-999.0,77,-99.99,,,-99.99,,2013-03-11 17:27:00,
2013-03-11 13:36:00,52.0,45.0,30.17,ENE,76,1.0,-999.0,76,-99.99,,,-99.99,,2013-03-11 17:36:00,
2013-03-11 13:42:00,52.0,45.0,30.17,ENE,76,1.0,-999.0,76,-99.99,,,-99.99,,2013-03-11 17:42:00,
2013-03-11 13:53:00,53.0,44.0,30.16,East,98,1.0,-999.0,72,-99.99,,,-99.99,,2013-03-11 17:53:00,
2013-03-11 14:02:00,53.0,45.0,30.16,South,171,0.0,-999.0,73,-99.99,,,-99.99,,2013-03-11 18:02:00,
2013-03-11 14:12:00,53.0,45.0,30.16,South,171,0.0,-999.0,73,-99.99,,,-99.99,,2013-03-11 18:12:00,
2013-03-11 14:23:00,54.0,45.0,30.14,NNE,19,1.0,-999.0,71,-99.99,,,-99.99,,2013-03-11 18:23:00,
2013-03-11 14:32:00,54.0,44.0,30.13,East,89,1.0,-999.0,69,-99.99,,,-99.99,,2013-03-11 18:32:00,
2013-03-11 14:42:00,54.0,44.0,30.13,East,89,1.0,-999.0,69,-99.99,,,-99.99,,2013-03-11 18:42:00,
2013-03-11 14:53:00,56.0,44.0,30.12,NNE,26,1.0,-999.0,64,-99.99,,,-99.99,,2013-03-11 18:53:00,
2013-03-11 15:02:00,56.0,44.0,30.12,East,85,1.0,-999.0,63,-99.99,,,-99.99,,2013-03-11 19:02:00,
2013-03-11 15:12:00,56.0,44.0,30.12,East,85,1.0,-999.0,63,-99.99,,,-99.99,,2013-03-11 19:12:00,
2013-03-11 15:23:00,57.0,44.0,30.11,WNW,294,1.0,-999.0,61,-99.99,,,-99.99,,2013-03-11 19:23:00,
2013-03-11 15:33:00,58.0,43.0,30.10,SSE,161,0.0,-999.0,57,-99.99,,,-99.99,,2013-03-11 19:33:00,
2013-03-11 15:42:00,58.0,43.0,30.10,SSE,161,0.0,-999.0,57,-99.99,,,-99.99,,2013-03-11 19:42:00,
2013-03-11 15:53:00,59.0,42.0,30.10,ENE,61,0.0,-999.0,53,-99.99,,,-99.99,,2013-03-11 19:53:00,
2013-03-11 16:02:00,60.0,42.0,30.09,North,5,1.0,-999.0,51,-99.99,,,-99.99,,2013-03-11 20:02:00,
2013-03-11 16:12:00,60.0,42.0,30.09,North,5,1.0,-999.0,51,-99.99,,,-99.99,,2013-03-11 20:12:00,
2013-03-11 16:22:00,60.0,42.0,30.09,SSE,159,0.0,-999.0,51,-99.99,,,-99.99,,2013-03-11 20:22:00,
2013-03-11 16:32:00,60.0,41.0,30.09,SE,141,0.0,-999.0,50,-99.99,,,-99.99,,2013-03-11 20:32:00,
2013-03-11 16:43:00,60.0,41.0,30.09,SE,141,0.0,-999.0,50,-99.99,,,-99.99,,2013-03-11 20:43:00,
2013-03-11 16:53:00,60.0,41.0,30.09,SE,126,1.0,-999.0,50,-99.99,,,-99.99,,2013-03-11 20:53:00,
2013-03-11 17:03:00,60.0,42.0,30.08,SE,126,0.0,-999.0,51,-99.99,,,-99.99,,2013-03-11 21:03:00,
2013-03-11 17:13:00,60.0,42.0,30.08,SE,126,0.0,-999.0,51,-99.99,,,-99.99,,2013-03-11 21:13:00,
2013-03-11 17:22:00,60.0,43.0,30.07,WNW,300,0.0,-999.0,53,-99.99,,,-99.99,,2013-03-11 21:22:00,
2013-03-11 17:33:00,60.0,43.0,30.06,SE,142,0.0,-999.0,53,-99.99,,,-99.99,,2013-03-11 21:33:00,
2013-03-11 17:44:00,60.0,43.0,30.06,SE,142,0.0,-999.0,53,-99.99,,,-99.99,,2013-03-11 21:44:00,
2013-03-11 17:53:00,60.0,44.0,30.06,SSW,202,0.0,-999.0,56,-99.99,,,-99.99,,2013-03-11 21:53:00,
2013-03-11 18:03:00,59.0,45.0,30.06,NNE,32,1.0,-999.0,60,-99.99,,,-99.99,,2013-03-11 22:03:00,
2013-03-11 18:12:00,59.0,45.0,30.06,NNE,32,1.0,-999.0,60,-99.99,,,-99.99,,2013-03-11 22:12:00,
2013-03-11 18:22:00,58.0,45.0,30.05,East,91,0.0,-999.0,62,-99.99,,,-99.99,,2013-03-11 22:22:00,
2013-03-11 18:32:00,58.0,46.0,30.05,NE,50,0.0,-999.0,64,-99.99,,,-99.99,,2013-03-11 22:32:00,
2013-03-11 18:43:00,58.0,46.0,30.05,NE,50,0.0,-999.0,64,-99.99,,,-99.99,,2013-03-11 22:43:00,
2013-03-11 18:53:00,57.0,47.0,30.05,ENE,65,0.0,-999.0,68,-99.99,,,-99.99,,2013-03-11 22:53:00,
2013-03-11 19:03:00,56.0,47.0,30.06,NE,40,0.0,-999.0,71,-99.99,,,-99.99,,2013-03-11 23:03:00,
2013-03-11 19:12:00,56.0,47.0,30.06,NE,40,0.0,-999.0,71,-99.99,,,-99.99,,2013-03-11 23:12:00,
2013-03-11 19:22:00,55.0,47.0,30.06,NW,326,0.0,-999.0,73,-99.99,,,-99.99,,2013-03-11 23:22:00,
2013-03-11 19:32:00,55.0,47.0,30.06,NW,319,0.0,-999.0,75,-99.99,,,-99.99,,2013-03-11 23:32:00,
2013-03-11 19:43:00,55.0,47.0,30.06,NW,319,0.0,-999.0,75,-99.99,,,-99.99,,2013-03-11 23:43:00,
2013-03-11 19:54:00,54.0,47.0,30.07,NNE,20,0.0,-999.0,76,-99.99,,,-99.99,,2013-03-11 23:54:00,
2013-03-11 20:02:00,54.0,47.0,30.06,NE,55,0.0,-999.0,78,-99.99,,,-99.99,,2013-03-12 00:02:00,
2013-03-11 20:12:00,54.0,47.0,30.06,NE,55,0.0,-999.0,78,-99.99,,,-99.99,,2013-03-12 00:12:00,
2013-03-11 20:23:00,53.0,47.0,30.06,South,170,0.0,-999.0,80,-99.99,,,-99.99,,2013-03-12 00:23:00,
2013-03-11 20:33:00,53.0,47.0,30.06,NNW,348,0.0,-999.0,81,-99.99,,,-99.99,,2013-03-12 00:33:00,
2013-03-11 20:42:00,53.0,47.0,30.06,NNW,348,0.0,-999.0,81,-99.99,,,-99.99,,2013-03-12 00:42:00,
2013-03-11 20:54:00,52.0,47.0,30.06,NE,35,0.0,-999.0,83,-99.99,,,-99.99,,2013-03-12 00:54:00,
2013-03-11 21:02:00,52.0,47.0,30.05,ENE,61,0.0,-999.0,84,-99.99,,,-99.99,,2013-03-12 01:02:00,
2013-03-11 21:12:00,52.0,47.0,30.05,ENE,61,0.0,-999.0,84,-99.99,,,-99.99,,2013-03-12 01:12:00,
2013-03-11 21:22:00,52.0,48.0,30.04,ENE,74,0.0,-999.0,85,-99.99,,,-99.99,,2013-03-12 01:22:00,
2013-03-11 21:33:00,51.0,47.0,30.04,SE,128,0.0,-999.0,86,-99.99,,,-99.99,,2013-03-12 01:33:00,
2013-03-11 21:42:00,51.0,47.0,30.04,SE,128,0.0,-999.0,86,-99.99,,,-99.99,,2013-03-12 01:42:00,
2013-03-11 21:53:00,51.0,47.0,30.05,NNE,19,0.0,-999.0,87,-99.99,,,-99.99,,2013-03-12 01:53:00,
2013-03-11 22:02:00,51.0,48.0,30.05,ENE,78,0.0,-999.0,88,-99.99,,,-99.99,,2013-03-12 02:02:00,
2013-03-11 22:12:00,51.0,48.0,30.05,ENE,78,0.0,-999.0,88,-99.99,,,-99.99,,2013-03-12 02:12:00,
2013-03-11 22:22:00,51.0,48.0,30.06,NE,38,1.0,-999.0,89,-99.99,,,-99.99,,2013-03-12 02:22:00,
2013-03-11 22:32:00,51.0,48.0,30.06,NE,36,0.0,-999.0,89,-99.99,,,-99.99,,2013-03-12 02:32:00,
2013-03-11 22:42:00,51.0,48.0,30.06,NE,36,0.0,-999.0,89,-99.99,,,-99.99,,2013-03-12 02:42:00,
2013-03-11 22:52:00,51.0,48.0,30.06,East,81,0.0,-999.0,89,-99.99,,,-99.99,,2013-03-12 02:52:00,
2013-03-11 23:02:00,50.0,47.0,30.06,East,81,0.0,-999.0,90,-99.99,,,-99.99,,2013-03-12 03:02:00,
2013-03-11 23:12:00,50.0,47.0,30.06,East,81,0.0,-999.0,90,-99.99,,,-99.99,,2013-03-12 03:12:00,
2013-03-11 23:22:00,50.0,47.0,30.05,NE,54,0.0,-999.0,90,-99.99,,,-99.99,,2013-03-12 03:22:00,
2013-03-11 23:32:00,50.0,47.0,30.05,NE,54,0.0,-999.0,90,-99.99,,,-99.99,,2013-03-12 03:32:00,
2013-03-11 23:42:00,50.0,47.0,30.05,NE,54,0.0,-999.0,90,-99.99,,,-99.99,,2013-03-12 03:42:00,
2013-03-11 23:53:00,50.0,47.0,30.05,ENE,74,0.0,-999.0,90,-99.99,,,-99.99,,2013-03-12 03:53:00,